BRISAT (41591 NORAD) Tracking and Keplerian Element Data

This shows tracking and keplerian element data for the satellite.

Feedback or suggestion? Click here.




ElementValue
Catalog41591
NameBRISAT
Epoch Orbit889
Epoch Day322.42239094
Epoch Year2018
RAAN287.8027
Inclination0.0132
Eccentricity0.0002278
Argument of Perigee297.7386
Mean Anonmoly134.4739
Mean Motion1.00273346
Decay Rate-1.87E-06
L11 41591U 16039A 18322.42239094 -.00000187 00000-0 00000+0 0 9994
L22 41591 0.0132 287.8027 0002278 297.7386 134.4739 1.00273346 8895

Live tracking and technical data element details for BRISAT (NORAD 41591). BRISAT can be tracked NOW for your location showing map with azimuth and elevation plus other details from your city location.

Track the satellite on the map from your city or location and see movement details for azimuth, elevation, latitude, longitude, range, height, and movement on the map or in text.







IsCatalogInMostPopularTable: catalog: 41591, numindb: 119
Update: records affected: 1



GetName: 41591 BRISAT

Hit Count: updated at: Wed, 21 Nov 2018 06:35:09 GMT